Powrót do katalogu

STARLINK-34856

AktywnyŁącznośćVLEO
NORAD 65687·PAYLOAD·🇺🇸 United States

Wystrzelony Sep 21, 2025 z Cape Canaveral Space Force Station

Loading…

Następne Przeloty (najbliższe 24 godziny)

TLE

ŚwieżeSource: CelesTrak SupGP

Epoka: Sep 14, 2026, 22:59 UTC

1 65687C 25212M   26257.95812500 -.00038267  00000+0 -12303-2 0  2571
2 65687  53.1580 185.1150 0001334  90.4003 193.8281 15.31726590    16

Śledź STARLINK-34856 w czasie rzeczywistym z AllMySat

Download on the App Store